AUA9PW LOWW-LOWI

Flight info

Callsign AUA9PW
Flight time 0h 48m
Altitude 30000
Route SOVIL DCT SITNI DCT BAGSI DCT NANIT NANIT2A
Aircraft A320/M-SDE3FGHIRWY/LB1

Departure

Time 2026-04-25 15:24
Airport Vienna International Airport (LOWW)

Arrival

Time 2026-04-25 16:12
Airport Innsbruck Airport (LOWI)
Time Latitude Longitude Altitude Speed Heading
2026-04-25 14:38 48.11880 16.56822 609 ft 0 kts 206°
2026-04-25 15:15 48.11891 16.56830 622 ft 4 kts 204°
2026-04-25 15:16 48.11916 16.56845 616 ft 4 kts 193°
2026-04-25 15:16 48.11942 16.56848 618 ft 4 kts 159°
2026-04-25 15:16 48.11955 16.56836 622 ft 0 kts 116°
2026-04-25 15:19 48.11944 16.56869 620 ft 9 kts 116°
2026-04-25 15:19 48.11915 16.56959 620 ft 9 kts 116°
2026-04-25 15:20 48.11890 16.57037 620 ft 8 kts 116°
2026-04-25 15:20 48.11875 16.57081 617 ft 7 kts 116°
2026-04-25 15:20 48.11846 16.57247 617 ft 13 kts 110°
2026-04-25 15:20 48.11796 16.57350 617 ft 12 kts 151°
2026-04-25 15:21 48.11722 16.57381 621 ft 10 kts 166°
2026-04-25 15:21 48.11643 16.57415 620 ft 15 kts 164°
2026-04-25 15:21 48.11537 16.57458 611 ft 15 kts 167°
2026-04-25 15:21 48.11444 16.57424 621 ft 14 kts 206°
2026-04-25 15:22 48.11350 16.57359 612 ft 16 kts 205°
2026-04-25 15:22 48.11246 16.57283 609 ft 17 kts 206°
2026-04-25 15:22 48.11138 16.57204 619 ft 17 kts 205°
2026-04-25 15:22 48.11051 16.57140 620 ft 8 kts 225°
2026-04-25 15:23 48.11068 16.57056 611 ft 11 kts 298°
2026-04-25 15:23 48.11166 16.56758 613 ft 65 kts 296°
2026-04-25 15:23 48.11455 16.55870 619 ft 123 kts 296°
2026-04-25 15:23 48.11898 16.54507 664 ft 163 kts 295°
2026-04-25 15:24 48.12397 16.52986 1342 ft 161 kts 292°
2026-04-25 15:24 48.12415 16.51339 2045 ft 167 kts 250°
2026-04-25 15:24 48.11815 16.49707 2404 ft 190 kts 241°
2026-04-25 15:24 48.11572 16.49136 2516 ft 196 kts 240°
2026-04-25 15:25 48.10227 16.46064 3163 ft 229 kts 240°
2026-04-25 15:25 48.09278 16.44006 3647 ft 251 kts 236°
2026-04-25 15:25 48.08164 16.41909 4396 ft 262 kts 234°
2026-04-25 15:25 48.06990 16.39783 5255 ft 266 kts 234°
2026-04-25 15:26 48.05809 16.37628 6218 ft 268 kts 234°
2026-04-25 15:26 48.04644 16.35427 7103 ft 271 kts 236°
2026-04-25 15:26 48.03701 16.33043 7971 ft 270 kts 252°
2026-04-25 15:26 48.03298 16.30316 8873 ft 268 kts 268°
2026-04-25 15:27 48.03341 16.27520 9739 ft 271 kts 274°
2026-04-25 15:27 48.03432 16.24681 10455 ft 279 kts 274°
2026-04-25 15:27 48.03556 16.18412 10951 ft 325 kts 272°
2026-04-25 15:28 48.03605 16.14963 11432 ft 336 kts 272°
2026-04-25 15:28 48.03654 16.11444 12102 ft 341 kts 272°
2026-04-25 15:28 48.03706 16.07884 12850 ft 344 kts 272°
2026-04-25 15:28 48.03758 16.04336 13566 ft 348 kts 272°
2026-04-25 15:29 48.03811 16.00707 14230 ft 351 kts 272°
2026-04-25 15:29 48.03866 15.97053 14876 ft 353 kts 272°
2026-04-25 15:29 48.03924 15.93365 15513 ft 356 kts 272°
2026-04-25 15:29 48.03981 15.89651 16159 ft 358 kts 272°
2026-04-25 15:30 48.04039 15.85920 16792 ft 361 kts 272°
2026-04-25 15:30 48.04096 15.82157 17403 ft 363 kts 272°
2026-04-25 15:30 48.04150 15.78369 18019 ft 366 kts 272°
2026-04-25 15:30 48.04199 15.74536 18576 ft 368 kts 272°
2026-04-25 15:31 48.04247 15.70700 19095 ft 371 kts 272°
2026-04-25 15:31 48.04296 15.66887 19621 ft 373 kts 272°
2026-04-25 15:31 48.04347 15.62950 20144 ft 375 kts 272°
2026-04-25 15:31 48.04396 15.59090 20657 ft 377 kts 271°
2026-04-25 15:32 48.04445 15.55158 21158 ft 380 kts 271°
2026-04-25 15:32 48.04492 15.51151 21659 ft 382 kts 271°
2026-04-25 15:32 48.04536 15.47220 22130 ft 385 kts 271°
2026-04-25 15:33 48.04618 15.39174 23071 ft 390 kts 271°
2026-04-25 15:33 48.04662 15.35096 23543 ft 392 kts 271°
2026-04-25 15:33 48.04720 15.31000 23933 ft 394 kts 271°
2026-04-25 15:33 48.04790 15.26897 24299 ft 396 kts 271°
2026-04-25 15:34 48.04866 15.22754 24692 ft 398 kts 271°
2026-04-25 15:34 48.04941 15.18611 25070 ft 400 kts 271°
2026-04-25 15:34 48.05010 15.14502 25427 ft 401 kts 271°
2026-04-25 15:34 48.05032 15.13089 25553 ft 402 kts 271°
2026-04-25 15:35 48.05192 15.01895 26529 ft 407 kts 271°
2026-04-25 15:35 48.05247 14.97650 26895 ft 409 kts 271°
2026-04-25 15:35 48.05302 14.93381 27238 ft 410 kts 271°
2026-04-25 15:36 48.05400 14.84871 27908 ft 414 kts 271°
2026-04-25 15:36 48.05450 14.80556 28227 ft 416 kts 271°
2026-04-25 15:36 48.05480 14.77631 28440 ft 417 kts 271°
2026-04-25 15:37 48.05521 14.73290 28747 ft 419 kts 270°
2026-04-25 15:37 48.05557 14.68931 29052 ft 420 kts 270°
2026-04-25 15:37 48.05587 14.64566 29343 ft 422 kts 270°
2026-04-25 15:37 48.05614 14.60179 29755 ft 421 kts 270°
2026-04-25 15:38 48.05639 14.55811 30000 ft 420 kts 270°
2026-04-25 15:38 48.05663 14.51493 30029 ft 419 kts 270°
2026-04-25 15:38 48.05710 14.42764 30029 ft 419 kts 270°
2026-04-25 15:39 48.05739 14.34033 30027 ft 419 kts 268°
2026-04-25 15:39 48.04591 14.25563 30026 ft 422 kts 250°
2026-04-25 15:40 48.02464 14.18911 30035 ft 424 kts 245°
2026-04-25 15:40 47.99416 14.09722 30033 ft 424 kts 245°
2026-04-25 15:41 47.96790 14.01826 30034 ft 425 kts 245°
2026-04-25 15:41 47.94154 13.93917 30038 ft 425 kts 245°
2026-04-25 15:42 47.91533 13.86067 30043 ft 426 kts 245°
2026-04-25 15:42 47.88889 13.78167 30042 ft 426 kts 245°
2026-04-25 15:43 47.86237 13.70278 30044 ft 426 kts 245°
2026-04-25 15:43 47.83566 13.62375 30042 ft 426 kts 245°
2026-04-25 15:44 47.80885 13.54477 30051 ft 427 kts 245°
2026-04-25 15:44 47.78204 13.46590 30049 ft 427 kts 245°
2026-04-25 15:45 47.75542 13.38755 30050 ft 427 kts 245°
2026-04-25 15:45 47.73304 13.32199 30052 ft 427 kts 244°
2026-04-25 15:46 47.70150 13.23012 29774 ft 426 kts 244°
2026-04-25 15:46 47.68802 13.19089 29439 ft 428 kts 244°
2026-04-25 15:46 47.67444 13.15137 28688 ft 431 kts 244°
2026-04-25 15:47 47.66082 13.11179 27951 ft 428 kts 244°
2026-04-25 15:47 47.64752 13.07322 27317 ft 422 kts 244°
2026-04-25 15:47 47.63404 13.03423 26649 ft 418 kts 244°
2026-04-25 15:47 47.62098 12.99654 26005 ft 414 kts 244°
2026-04-25 15:48 47.60781 12.95865 25368 ft 411 kts 244°
2026-04-25 15:48 47.59475 12.92109 24744 ft 408 kts 244°
2026-04-25 15:48 47.58184 12.88392 24128 ft 404 kts 244°
2026-04-25 15:48 47.56900 12.84701 23491 ft 401 kts 244°
2026-04-25 15:49 47.55626 12.81045 22841 ft 398 kts 244°
2026-04-25 15:49 47.54362 12.77425 22281 ft 392 kts 244°
2026-04-25 15:49 47.53117 12.73860 21729 ft 388 kts 244°
2026-04-25 15:49 47.51882 12.70329 21199 ft 384 kts 244°
2026-04-25 15:50 47.50670 12.66874 20689 ft 380 kts 244°
2026-04-25 15:50 47.49456 12.63421 20193 ft 376 kts 244°
2026-04-25 15:50 47.48255 12.60009 19715 ft 372 kts 244°
2026-04-25 15:50 47.47061 12.56629 19261 ft 369 kts 244°
2026-04-25 15:51 47.45878 12.53275 18801 ft 366 kts 244°
2026-04-25 15:51 47.45102 12.51072 18506 ft 364 kts 244°
2026-04-25 15:51 47.43546 12.46655 17865 ft 359 kts 244°
2026-04-25 15:51 47.42409 12.43438 17435 ft 356 kts 244°
2026-04-25 15:52 47.41269 12.40208 16976 ft 352 kts 245°
2026-04-25 15:52 47.40352 12.36883 16514 ft 348 kts 255°
2026-04-25 15:52 47.39859 12.33398 16036 ft 346 kts 264°
2026-04-25 15:52 47.39793 12.29853 15526 ft 346 kts 274°
2026-04-25 15:53 47.40093 12.26343 15060 ft 343 kts 278°
2026-04-25 15:53 47.40427 12.22851 14576 ft 344 kts 278°
2026-04-25 15:53 47.40752 12.19389 14076 ft 344 kts 278°
2026-04-25 15:53 47.41077 12.15898 13553 ft 343 kts 278°
2026-04-25 15:54 47.41401 12.12412 13033 ft 341 kts 278°
2026-04-25 15:54 47.41721 12.08951 12520 ft 339 kts 278°
2026-04-25 15:54 47.42039 12.05500 12009 ft 339 kts 278°
2026-04-25 15:54 47.42350 12.02107 11826 ft 327 kts 277°
2026-04-25 15:55 47.42644 11.98838 11688 ft 316 kts 277°
2026-04-25 15:55 47.42931 11.95678 11557 ft 304 kts 278°
2026-04-25 15:55 47.43200 11.92682 11429 ft 284 kts 277°
2026-04-25 15:55 47.43516 11.89904 11280 ft 265 kts 288°
2026-04-25 15:56 47.44348 11.87549 11170 ft 256 kts 307°
2026-04-25 15:56 47.45641 11.85805 11063 ft 250 kts 326°
2026-04-25 15:56 47.47222 11.84809 11018 ft 246 kts 344°
2026-04-25 15:56 47.48935 11.84616 11019 ft 253 kts
2026-04-25 15:57 47.50661 11.85298 11026 ft 259 kts 22°
2026-04-25 15:57 47.52134 11.86829 11022 ft 266 kts 43°
2026-04-25 15:57 47.53370 11.88881 11023 ft 268 kts 46°
2026-04-25 15:57 47.54599 11.90946 11012 ft 266 kts 46°
2026-04-25 15:58 47.55825 11.93003 10749 ft 266 kts 46°
2026-04-25 15:58 47.56857 11.95284 10487 ft 269 kts 66°
2026-04-25 15:58 47.57273 11.97965 10209 ft 269 kts 88°
2026-04-25 15:58 47.56992 12.00682 9799 ft 268 kts 113°
2026-04-25 15:59 47.56065 12.03022 9563 ft 261 kts 135°
2026-04-25 15:59 47.54674 12.04687 9493 ft 256 kts 156°
2026-04-25 15:59 47.53014 12.05525 9512 ft 250 kts 177°
2026-04-25 15:59 47.51307 12.05472 9508 ft 243 kts 197°
2026-04-25 16:00 47.49751 12.04607 9509 ft 237 kts 215°
2026-04-25 16:00 47.47366 12.01370 9511 ft 235 kts 231°
2026-04-25 16:00 47.46288 11.99548 9505 ft 236 kts 232°
2026-04-25 16:01 47.45220 11.97704 9509 ft 237 kts 231°
2026-04-25 16:01 47.44146 11.95858 9509 ft 237 kts 231°
2026-04-25 16:01 47.43016 11.93971 9507 ft 260 kts 226°
2026-04-25 16:01 47.41610 11.92323 9498 ft 252 kts 216°
2026-04-25 16:02 47.40142 11.91012 9508 ft 242 kts 212°
2026-04-25 16:02 47.38671 11.89814 9496 ft 240 kts 212°
2026-04-25 16:02 47.37221 11.88639 9502 ft 240 kts 212°
2026-04-25 16:02 47.35765 11.87421 9493 ft 240 kts 214°
2026-04-25 16:03 47.34627 11.86136 9491 ft 233 kts 225°
2026-04-25 16:03 47.33588 11.84371 9495 ft 225 kts 238°
2026-04-25 16:03 47.32857 11.82356 9495 ft 222 kts 250°
2026-04-25 16:03 47.32396 11.80186 9500 ft 221 kts 257°
2026-04-25 16:04 47.32057 11.77984 9486 ft 220 kts 259°
2026-04-25 16:04 47.31752 11.75757 9346 ft 227 kts 259°
2026-04-25 16:04 47.31439 11.73418 8927 ft 236 kts 259°
2026-04-25 16:04 47.31113 11.71017 8524 ft 242 kts 260°
2026-04-25 16:05 47.30891 11.69398 8241 ft 245 kts 259°
2026-04-25 16:05 47.30428 11.66059 7693 ft 251 kts 260°
2026-04-25 16:05 47.29736 11.61181 6905 ft 238 kts 260°
2026-04-25 16:06 47.29400 11.58825 6522 ft 232 kts 261°
2026-04-25 16:06 47.29073 11.56513 6126 ft 229 kts 261°
2026-04-25 16:06 47.28750 11.54243 5746 ft 225 kts 260°
2026-04-25 16:06 47.28431 11.52006 5390 ft 221 kts 260°
2026-04-25 16:07 47.28118 11.49807 5035 ft 219 kts 259°
2026-04-25 16:07 47.28012 11.49071 4899 ft 218 kts 259°
2026-04-25 16:07 47.27506 11.45550 4249 ft 204 kts 259°
2026-04-25 16:07 47.27043 11.43615 3874 ft 200 kts 242°
2026-04-25 16:08 47.26303 11.41952 3708 ft 185 kts 237°
2026-04-25 16:08 47.25602 11.40492 3701 ft 166 kts 236°
2026-04-25 16:08 47.24941 11.39129 3704 ft 161 kts 237°
2026-04-25 16:08 47.24294 11.37788 3698 ft 160 kts 235°
2026-04-25 16:09 47.23795 11.36374 3699 ft 155 kts 255°
2026-04-25 16:09 47.23613 11.34825 3714 ft 152 kts 266°
2026-04-25 16:09 47.23537 11.33299 3711 ft 148 kts 269°
2026-04-25 16:09 47.23501 11.31799 3707 ft 145 kts 271°
2026-04-25 16:10 47.23476 11.30299 3701 ft 147 kts 271°
2026-04-25 16:10 47.23452 11.28801 3703 ft 146 kts 271°
2026-04-25 16:10 47.23768 11.27438 3642 ft 144 kts 315°
2026-04-25 16:10 47.24639 11.26774 3298 ft 148 kts
2026-04-25 16:11 47.25500 11.27505 2959 ft 152 kts 65°
2026-04-25 16:11 47.25630 11.29031 2698 ft 155 kts 91°
2026-04-25 16:11 47.25632 11.30580 2407 ft 148 kts 81°
2026-04-25 16:11 47.25756 11.32058 2162 ft 142 kts 75°
2026-04-25 16:12 47.25918 11.33464 1927 ft 134 kts 78°
2026-04-25 16:12 47.26043 11.34588 1909 ft 74 kts 81°
2026-04-25 16:12 47.26091 11.35057 1907 ft 28 kts 81°
2026-04-25 16:12 47.26101 11.35145 1906 ft 20 kts 81°
2026-04-25 16:13 47.26051 11.35263 1894 ft 9 kts 174°
2026-04-25 16:13 47.25998 11.35273 1899 ft 7 kts 171°
2026-04-25 16:13 47.25959 11.35282 1898 ft 4 kts 171°
2026-04-25 16:13 47.25945 11.35286 1898 ft 0 kts 171°
2026-04-25 16:14 47.25920 11.35289 1907 ft 5 kts 181°
2026-04-25 16:14 47.25900 11.35266 1894 ft 3 kts 243°
2026-04-25 16:15 47.25898 11.35240 1907 ft 5 kts 263°
2026-04-25 16:15 47.25894 11.35191 1908 ft 4 kts 263°
2026-04-25 16:15 47.25891 11.35156 1897 ft 6 kts 261°
2026-04-25 16:15 47.25873 11.35100 1896 ft 5 kts 209°
2026-04-25 16:16 47.25847 11.35107 1900 ft 3 kts 166°
2026-04-25 16:16 47.25831 11.35109 1899 ft 2 kts 172°
2026-04-25 16:16 47.25828 11.35110 1901 ft 0 kts 172°